Location: Unspecified
(41.1637°N, 24.2901°E)
Time: 03:57:40
(UTC+02:00)

ISS - Pass Details

Date: 26 March 2023
Orbit: 413 x 423 km, 51.6° (Epoch: 01 April)

Event Time Altitude Azimuth Distance (km) Brightness Sun altitude
Rises 21:18:46 0° 310° (NW) 2,354 1.3 -28.8°
Reaches altitude 10° 21:21:01 10° 320° (NW) 1,488 -0.1 -29.2°
Enters shadow 21:21:43 15° 327° (NNW) 1,240 -0.7 -29.3°
